Tracking 29892 objects as of 21-Nov-2024
HD Live streaming from Space Station
objects crossing your sky now

DELTA 1 DEB

Track DELTA 1 DEB now!
10-day predictions


NORAD ID: 10842
Int'l Code: 1976-077CN
Perigee: 1,209.5 km
Apogee: 1,659.8 km
Inclination: 102.1 °
Period: 114.4 minutes
Semi major axis: 7805 km
RCS: 0.1889 m2 (medium)
Launch date: July 29, 1976
Source: United States (US)
Launch site: AIR FORCE WESTERN TEST RANGE (AFWTR)

Note: This is SATELLITE DEBRIS
Your satellite tracking list
Your tracking list is empty




NASA's NSSDC Master Catalog

Two Line Element Set (TLE):
1 10842U 76077CN  24325.84756078  .00000325  00000-0  18551-2 0  9995
2 10842 102.1300  93.6349 0288456  67.1819  97.7828 12.58888253 82510
Source of the keplerian elements: AFSPC